Wind_Speed
11 12 12 12 13 13 13 13 13 13 13 13 13 14 14 14 14 14 14 14 14 14 15 15 15 15 16 16 17 17 17 16 16 17 18 18 18 18 18 18 18 17 17
12 12 13 12 13 13 14 13 13 13 13 13 13 13 14 14 14 14 14 14 15 15 15 15 15 15 15 16 17 17 17 17 17 18 19 19 19 18 18 18 18 18 18
13 13 13 13 13 13 14 15 15 14 14 14 14 13 13 14 14 14 14 15 15 15 15 15 15 15 16 16 17 17 17 17 17 18 18 19 19 19 18 18 18 18 18
13 13 13 13 13 13 14 14 14 15 14 14 14 14 14 15 15 14 15 15 15 15 15 16 16 17 17 17 17 17 17 17 17 18 18 19 19 19 19 18 18 18 17
14 14 14 14 14 14 14 14 14 15 15 14 14 14 15 15 15 16 16 16 15 15 15 15 16 17 17 17 18 18 18 18 18 18 18 18 18 18 18 18 18 18 17
14 15 14 14 14 15 15 15 15 14 15 15 14 14 14 15 15 16 16 16 16 16 16 16 16 17 17 18 18 18 18 18 17 17 17 18 17 17 17 17 17 17 17
14 15 15 14 14 15 15 15 15 15 14 15 15 15 15 15 16 16 16 16 17 17 17 17 17 17 17 18 18 18 18 18 18 17 16 16 16 17 17 17 17 17 17
15 15 15 15 15 15 15 15 15 15 15 15 16 16 15 15 16 16 17 17 18 18 18 18 18 18 19 19 19 19 19 19 18 19 18 17 16 17 17 17 17 17 17
15 15 14 14 14 15 15 15 15 15 15 15 16 16 16 16 16 16 16 17 18 19 19 20 20 19 19 19 19 19 19 19 19 18 18 18 18 18 17 18 17 17 17
15 15 16 15 15 16 16 16 16 16 16 16 16 17 17 17 17 17 17 18 18 19 19 19 19 19 19 19 20 19 19 19 19 19 18 18 18 18 18 18 18 18 18
16 15 15 16 16 16 17 17 16 16 16 17 17 17 17 17 17 17 17 18 18 18 19 19 19 20 20 20 20 20 19 20 19 19 19 18 19 19 18 19 19 19 19
16 16 16 16 17 17 17 17 17 17 16 17 17 17 17 18 18 18 18 18 18 19 19 19 20 21 21 20 20 20 19 19 19 20 20 19 19 19 20 20 20 20 19
17 16 17 17 17 17 17 17 17 17 17 16 16 17 17 17 18 18 18 18 19 19 20 20 19 20 21 20 20 20 20 20 20 20 21 21 20 20 20 20 21 21 20
17 17 17 17 17 17 17 17 18 18 17 17 17 17 18 17 17 18 18 19 19 19 19 20 19 19 20 20 20 21 20 20 21 21 21 21 21 21 21 21 21 21 21
18 18 18 18 18 18 18 18 18 18 18 18 18 18 18 18 18 18 19 19 19 19 19 20 19 19 20 20 21 21 21 21 21 21 21 22 22 22 22 22 22 22 22
19 19 19 19 19 19 19 19 19 19 19 19 20 20 19 19 19 19 20 20 20 20 20 20 20 20 20 21 21 21 22 22 22 22 23 23 23 23 23 23 24 24 24
19 19 20 20 20 20 20 20 20 20 20 21 21 21 21 21 20 21 21 21 21 21 21 21 21 21 21 21 22 22 22 23 23 23 24 24 24 24 24 23 23 23 24
20 20 21 21 21 22 22 22 21 21 21 22 22 22 22 22 22 22 22 22 22 22 23 23 23 22 22 22 23 24 24 24 24 24 24 25 25 25 24 24 24 24 24
21 20 20 21 22 22 23 23 23 23 23 23 23 24 24 25 25 24 24 24 25 25 24 25 25 24 24 24 24 24 25 25 25 25 25 25 25 25 25 25 25 25 26
22 22 21 22 22 23 24 24 25 25 25 25 25 25 25 26 26 27 27 26 26 26 26 26 26 26 26 25 25 25 25 26 26 26 26 26 26 26 27 27 26 26 27
23 23 23 24 24 24 25 26 26 26 27 27 26 26 26 26 27 28 28 28 28 27 27 27 27 27 27 26 26 26 27 27 27 27 27 28 27 27 27 27 27 27 28
24 23 24 25 25 26 26 26 27 27 28 27 27 27 27 27 28 28 28 28 28 28 27 27 27 27 26 27 26 26 27 27 27 27 27 28 28 28 29 28 28 28 29
25 25 25 25 25 26 27 27 27 28 28 28 27 27 28 28 27 28 28 28 28 28 28 28 27 26 26 26 26 26 26 27 27 28 28 27 27 27 28 28 28 28 28
26 26 26 26 26 26 27 27 28 28 28 28 28 28 28 28 28 27 27 28 28 28 28 28 28 27 27 27 27 27 27 27 27 28 28 27 27 27 27 27 28 28 28
26 26 26 26 26 26 27 27 27 28 28 28 28 28 28 28 28 28 28 28 28 27 28 29 28 28 28 28 28 28 28 28 27 27 27 27 26 27 27 27 28 28 28
26 26 26 26 27 27 28 29 29 29 29 28 28 28 28 28 28 28 29 29 29 28 28 28 28 28 28 28 28 28 28 28 27 27 27 27 27 26 26 26 27 28 28
Wind_Direction
264 263 263 261 259 258 257 257 258 256 258 258 256 258 256 254 252 248 248 249 249 249 247 246 246 248 249 249 250 251 251 249 249 249 251 251 252 251 251 252 253 254 254
265 265 264 262 260 259 259 258 257 258 259 259 258 258 255 252 250 248 249 250 251 252 252 251 249 248 249 249 250 251 252 251 251 253 253 252 253 253 254 254 253 254 254
263 265 266 264 262 261 261 260 259 259 259 258 256 257 255 252 250 249 250 251 252 253 253 253 252 251 251 249 251 252 253 254 253 254 255 254 253 253 253 253 254 256 256
265 265 266 265 263 263 263 261 262 261 261 258 257 258 255 253 252 251 252 252 252 252 252 253 254 255 253 250 251 252 256 257 257 257 257 256 254 253 254 253 255 257 259
268 266 266 264 265 265 262 261 262 263 262 259 258 258 255 253 254 252 254 252 250 252 254 254 255 256 254 253 253 255 257 259 261 261 260 257 255 253 253 255 256 257 256
268 267 266 264 264 263 262 263 264 263 261 260 261 260 256 255 255 252 252 253 251 253 254 255 255 256 257 256 255 256 258 259 261 263 262 256 254 252 252 255 256 255 255
268 270 265 263 262 263 263 263 263 263 262 260 262 262 259 257 256 255 254 253 253 254 254 256 257 256 257 258 258 258 258 258 261 261 261 254 251 250 251 254 255 255 256
269 271 266 263 264 264 262 263 263 264 263 261 261 262 261 259 259 258 254 253 254 254 254 258 258 257 258 258 258 257 258 257 259 259 258 256 253 252 252 253 254 256 258
269 270 270 267 267 263 262 262 263 264 262 261 260 260 261 260 260 258 256 256 256 256 257 258 258 257 256 257 258 257 258 258 257 257 258 256 255 254 253 252 252 256 258
272 271 271 267 266 263 261 261 263 262 262 262 260 260 262 263 260 259 260 260 259 259 259 259 257 256 256 257 257 258 259 257 257 257 258 256 254 254 254 253 253 254 256
273 272 271 268 265 264 262 262 262 263 263 262 262 262 263 263 263 261 261 260 260 259 258 257 255 257 259 259 258 257 258 258 257 257 258 257 255 254 256 254 254 254 255
271 269 271 269 268 266 263 262 262 264 264 265 265 264 264 263 263 262 262 260 260 260 260 258 256 258 259 259 258 256 257 259 258 257 257 257 256 255 255 255 254 255 256
271 270 270 271 269 266 264 265 264 264 265 265 265 265 263 263 263 263 262 261 261 261 261 260 258 258 259 257 257 257 258 257 256 255 256 256 256 257 256 257 257 256 256
270 271 270 269 268 266 265 266 266 264 264 264 264 264 263 264 264 263 263 263 262 262 263 261 259 259 259 256 255 257 257 257 256 256 256 256 257 257 257 256 257 257 257
269 268 268 268 267 267 266 266 268 266 264 264 264 264 264 263 264 265 265 264 264 264 264 263 260 258 256 256 258 258 257 257 256 256 257 256 257 257 257 257 256 256 256
269 267 266 268 268 267 267 266 265 265 266 266 265 265 266 265 264 265 265 265 265 265 264 263 260 260 260 259 258 256 256 256 257 258 257 258 259 260 259 258 256 256 257
271 268 267 266 266 266 265 265 266 265 267 268 267 267 267 266 265 265 266 266 266 265 263 264 263 262 263 262 259 258 257 256 256 256 257 257 258 260 260 258 257 256 257
275 271 268 266 265 265 265 266 267 267 268 268 268 267 267 266 266 266 266 266 267 266 265 264 264 264 264 263 262 260 259 259 258 258 258 257 258 259 260 260 259 259 259
277 273 269 267 265 266 266 266 267 268 268 269 269 269 268 267 267 267 267 267 267 267 267 266 265 265 264 264 263 263 262 260 259 259 259 259 259 260 261 259 257 257 257
276 272 270 269 267 267 266 267 268 269 270 270 271 270 269 269 267 266 266 267 267 267 267 267 267 264 263 263 262 262 262 261 259 259 259 259 259 261 261 259 258 258 256
277 274 272 270 269 268 268 268 269 270 271 271 271 271 269 269 268 267 267 266 267 267 267 267 266 264 263 263 263 262 262 262 260 259 260 260 260 260 260 260 259 258 257
278 276 275 274 272 270 269 270 270 270 271 271 271 271 270 269 268 267 267 267 266 266 266 267 266 264 262 263 263 263 262 262 261 261 261 260 261 260 260 260 261 260 258
280 279 277 276 274 273 271 270 270 270 270 270 271 271 270 269 269 268 267 266 266 266 266 267 265 263 262 263 264 263 262 261 261 260 260 260 260 261 260 260 260 260 259
280 280 279 278 277 275 273 272 272 270 270 270 271 271 269 269 269 269 267 266 266 266 265 265 264 263 263 263 263 263 262 261 261 260 259 261 261 259 260 260 258 258 259
279 279 279 280 280 277 274 273 274 271 270 270 270 270 270 269 269 268 268 267 266 265 265 265 264 264 264 263 262 263 263 262 261 261 260 260 260 259 258 258 257 256 257
280 279 279 279 279 278 275 273 273 273 271 270 269 270 270 270 269 269 269 268 267 267 266 265 263 264 263 263 262 262 263 262 260 260 259 259 258 258 258 259 258 256 256
Height
5846 5846 5845 5845 5845 5845 5845 5845 5845 5845 5845 5844 5844 5844 5844 5844 5845 5845 5845 5846 5846 5847 5847 5847 5847 5848 5848 5848 5849 5849 5849 5850 5851 5851 5852 5852 5853 5854 5854 5855 5856 5856 5857
5843 5843 5843 5843 5842 5842 5842 5842 5842 5842 5842 5841 5841 5841 5841 5841 5842 5842 5843 5843 5843 5843 5844 5844 5844 5844 5845 5845 5845 5846 5846 5846 5847 5847 5848 5848 5849 5849 5850 5851 5852 5853 5853
5841 5841 5840 5840 5839 5839 5839 5839 5839 5839 5839 5838 5838 5838 5838 5838 5839 5839 5839 5840 5840 5840 5840 5841 5841 5841 5841 5842 5842 5842 5842 5843 5843 5843 5843 5843 5844 5845 5846 5847 5848 5849 5850
5838 5838 5837 5837 5837 5836 5836 5836 5835 5835 5835 5835 5835 5835 5835 5835 5836 5836 5836 5836 5836 5837 5837 5837 5837 5837 5838 5838 5838 5839 5839 5839 5839 5838 5838 5838 5838 5840 5841 5843 5844 5845 5846
5835 5834 5834 5834 5833 5833 5833 5833 5832 5832 5832 5832 5832 5832 5832 5832 5832 5832 5833 5833 5833 5833 5833 5834 5834 5834 5834 5834 5834 5835 5835 5835 5834 5834 5833 5833 5833 5835 5836 5838 5840 5841 5842
5831 5831 5830 5830 5830 5830 5830 5829 5829 5829 5829 5829 5829 5829 5828 5828 5828 5829 5829 5829 5829 5830 5830 5830 5830 5830 5830 5830 5831 5831 5831 5830 5830 5830 5829 5829 5829 5831 5833 5834 5836 5837 5838
5827 5827 5827 5826 5826 5826 5826 5826 5826 5825 5825 5825 5825 5825 5825 5825 5825 5825 5825 5825 5826 5826 5826 5826 5826 5826 5827 5827 5827 5827 5827 5827 5827 5826 5826 5826 5826 5828 5829 5831 5832 5833 5834
5824 5823 5823 5823 5823 5822 5822 5822 5822 5822 5822 5822 5822 5821 5821 5822 5821 5821 5821 5821 5822 5822 5822 5822 5822 5822 5823 5823 5823 5823 5824 5823 5823 5823 5823 5824 5824 5825 5826 5827 5828 5829 5830
5820 5820 5819 5819 5819 5819 5818 5818 5818 5818 5818 5818 5817 5818 5817 5817 5817 5817 5817 5817 5817 5818 5818 5818 5818 5818 5818 5819 5819 5819 5820 5820 5820 5820 5820 5820 5821 5822 5823 5824 5825 5826 5827
5816 5816 5815 5815 5815 5815 5814 5814 5814 5814 5814 5814 5813 5813 5813 5813 5813 5813 5813 5813 5813 5813 5813 5813 5813 5814 5814 5814 5814 5815 5815 5815 5816 5816 5816 5817 5817 5818 5819 5820 5821 5822 5823
5812 5811 5811 5811 5811 5810 5810 5810 5810 5810 5810 5809 5809 5809 5809 5808 5808 5809 5809 5809 5808 5809 5809 5809 5809 5809 5809 5809 5810 5810 5811 5811 5811 5812 5812 5813 5813 5814 5815 5816 5817 5817 5818
5807 5807 5807 5806 5806 5806 5806 5806 5806 5806 5805 5805 5805 5805 5804 5804 5804 5804 5804 5804 5804 5804 5804 5804 5804 5804 5804 5804 5805 5805 5806 5807 5807 5807 5808 5808 5809 5809 5810 5811 5812 5813 5813
5803 5802 5802 5802 5801 5801 5801 5801 5801 5801 5801 5800 5800 5800 5800 5799 5799 5799 5799 5799 5799 5799 5799 5799 5799 5799 5799 5799 5800 5800 5801 5802 5802 5802 5803 5803 5804 5805 5805 5806 5807 5808 5808
5798 5797 5797 5797 5796 5796 5796 5796 5796 5796 5796 5796 5796 5795 5795 5795 5794 5794 5794 5794 5794 5794 5794 5793 5793 5793 5794 5794 5794 5795 5795 5796 5796 5797 5797 5798 5799 5799 5800 5801 5802 5802 5803
5792 5792 5792 5792 5792 5791 5791 5792 5791 5791 5791 5791 5791 5790 5790 5790 5790 5789 5789 5789 5789 5789 5789 5788 5788 5788 5788 5788 5788 5789 5789 5790 5790 5791 5792 5792 5793 5794 5795 5795 5796 5797 5797
5787 5787 5787 5786 5786 5786 5786 5786 5786 5786 5786 5786 5785 5785 5785 5785 5784 5784 5784 5784 5784 5783 5783 5783 5783 5782 5782 5782 5782 5783 5783 5784 5784 5785 5786 5786 5787 5788 5788 5789 5790 5790 5791
5782 5781 5781 5781 5781 5781 5781 5781 5781 5781 5780 5780 5780 5779 5779 5779 5779 5778 5778 5778 5778 5777 5777 5777 5777 5776 5776 5776 5776 5776 5777 5777 5778 5778 5779 5780 5781 5781 5782 5782 5783 5783 5784
5776 5775 5775 5775 5774 5774 5774 5774 5774 5774 5774 5774 5773 5773 5773 5773 5772 5772 5772 5772 5771 5771 5771 5771 5770 5770 5769 5769 5769 5769 5770 5770 5771 5772 5772 5773 5774 5774 5775 5775 5776 5777 5777
5770 5769 5769 5768 5768 5768 5768 5768 5768 5768 5767 5767 5767 5766 5766 5766 5765 5765 5765 5764 5764 5764 5764 5764 5763 5763 5762 5762 5762 5762 5763 5763 5764 5765 5765 5766 5767 5767 5768 5768 5769 5770 5771
5763 5762 5762 5762 5761 5761 5761 5761 5761 5760 5760 5760 5759 5759 5758 5758 5758 5757 5757 5757 5756 5756 5756 5756 5755 5755 5755 5755 5755 5755 5755 5755 5756 5757 5757 5758 5759 5760 5760 5761 5761 5762 5763
5757 5756 5755 5755 5754 5754 5754 5753 5753 5753 5752 5752 5751 5750 5750 5750 5749 5749 5749 5748 5748 5748 5747 5747 5747 5747 5747 5746 5747 5747 5747 5747 5748 5748 5749 5750 5751 5751 5752 5752 5753 5754 5755
5749 5748 5748 5747 5746 5746 5746 5745 5745 5744 5744 5743 5742 5742 5741 5741 5740 5740 5740 5739 5739 5739 5739 5738 5738 5738 5738 5738 5738 5738 5738 5739 5740 5741 5740 5741 5742 5742 5743 5744 5744 5745 5746
5742 5741 5740 5739 5738 5738 5737 5737 5736 5735 5735 5734 5734 5733 5733 5732 5731 5731 5730 5730 5730 5729 5730 5730 5730 5729 5730 5730 5730 5730 5730 5730 5731 5731 5731 5732 5733 5733 5734 5735 5736 5737 5737
5734 5733 5732 5731 5730 5729 5728 5728 5727 5726 5726 5725 5724 5724 5723 5723 5722 5722 5721 5721 5721 5721 5721 5721 5721 5721 5721 5721 5721 5721 5720 5721 5722 5722 5723 5724 5724 5724 5725 5726 5727 5728 5729
5726 5725 5724 5722 5721 5720 5720 5719 5718 5717 5717 5716 5716 5715 5714 5714 5714 5713 5713 5712 5712 5712 5712 5712 5712 5712 5712 5712 5712 5712 5712 5712 5713 5713 5714 5715 5715 5716 5716 5717 5718 5719 5720
5718 5716 5715 5714 5713 5712 5711 5710 5709 5708 5708 5707 5706 5706 5705 5705 5704 5704 5703 5703 5703 5703 5703 5703 5703 5703 5703 5703 5703 5703 5704 5704 5704 5705 5705 5706 5707 5707 5708 5709 5710 5711 5712